Location: Lourdes
(43.1000°N, 0.0500°W)
Time: 09:54:26
(UTC+00:00)

Cosmos 1151 Rocket - Pass Details

Date: 19 April 2021
Orbit: 593 x 614 km, 82.5° (Epoch: 08 May)

Event Time Altitude Azimuth Distance (km) Brightness Sun altitude
Exits shadow 23:34:05 18° 11° (NNE) 1,517 5.6 -35.1°
Drops below altitude 10° 23:35:11 10° 11° (N) 1,956 6.3 -35.1°
Sets 23:37:24 0° 10° (N) 2,867 7.4 -35.2°
